This is the latest recevied weather packets stored in our database for station/object YO4ISC-13. If no packets are shown the sender has not sent any weather packets the latest 10 day(s).
| Time | Temp. | Humidity | Pressure | Rain* | Wind** | Luminosity | Snow |
|---|---|---|---|---|---|---|---|
| 1778058601 | 14.44° C | 72% | 1019 hPa | - | - | - | - |
| 1778058002 | 14.44° C | 72% | 1019 hPa | - | - | - | - |
| 1778057402 | 14.44° C | 71% | 1019 hPa | - | - | - | - |
| 1778056801 | 13.89° C | 74% | 1019 hPa | - | - | - | - |
| 1778056202 | 13.89° C | 76% | 1019 hPa | - | - | - | - |
| 1778055602 | 13.89° C | 75% | 1019 hPa | - | - | - | - |
| 1778055002 | 13.89° C | 79% | 1019 hPa | - | - | - | - |
| 1778054401 | 13.89° C | 79% | 1019 hPa | - | - | - | - |
| 1778053802 | 13.89° C | 79% | 1019 hPa | - | - | - | - |
| 1778053201 | 13.89° C | 80% | 1019 hPa | - | - | - | - |
| 1778052602 | 13.89° C | 83% | 1019 hPa | - | - | - | - |
| 1778052001 | 13.89° C | 79% | 1018 hPa | - | - | - | - |
| 1778051402 | 13.89° C | 74% | 1018 hPa | - | - | - | - |
| 1778050802 | 13.89° C | 76% | 1018 hPa | - | - | - | - |
| 1778050201 | 13.33° C | 76% | 1018 hPa | - | - | - | - |
| 1778049602 | 13.89° C | 75% | 1018 hPa | - | - | - | - |
| 1778049001 | 13.33° C | 73% | 1018 hPa | - | - | - | - |
| 1778048402 | 13.33° C | 72% | 1018 hPa | - | - | - | - |
| 1778047801 | 13.33° C | 76% | 1018 hPa | - | - | - | - |
| 1778047205 | 13.89° C | 74% | 1018 hPa | - | - | - | - |
| 1778046601 | 13.89° C | 67% | 1018 hPa | - | - | - | - |
| 1778046002 | 13.33° C | 67% | 1018 hPa | - | - | - | - |
| 1778045401 | 12.78° C | 69% | 1018 hPa | - | - | - | - |
| 1778044802 | 12.22° C | 72% | 1018 hPa | - | - | - | - |
| 1778044201 | 12.22° C | 70% | 1018 hPa | - | - | - | - |
* Rain since midnight (hover to see other rain measurements)
** Current wind speed in m/s (hover to see current wind gust speed)